Regional Weather Roundup
Issued by NWS

Home | Current Version | Previous Version | Text Only | Print | Product List | Glossary On
Versions: 1 2 3 4 5 6 7 8 9 10 11 12 13 14 15 16 17 18 19 20 21 22 23 24 25 26 27 28 29 30 31 32 33 34 35 36 37 38 39 40 41 42 43 44 45 46 47 48 49 50
000
ASUS43 KDMX 012008
RWRIA

WEATHER ROUNDUP FOR IOWA
NATIONAL WEATHER SERVICE DES MOINES IA
300 PM CDT SUN MAY 01 2016

NOTE: "FAIR" INDICATES FEW OR NO CLOUDS BELOW 12,000 FEET WITH NO
SIGNIFICANT WEATHER AND/OR OBSTRUCTIONS TO VISIBILITY.

* - THESE STATIONS ARE NOT NWS STATIONS...THUS NOT UNDER NWS
QUALITY CONTROL.  THEY ALSO DO NOT REPORT WEATHER SUCH
AS PRECIPITATION OR FOG.

IAZ001>003-012>014-020>022-031>034-043>046-012100-
   NORTHWEST IOWA

CITY           SKY/WX    TMP DP  RH WIND       PRES   REMARKS
CARROLL *      PTSUNNY   46  45  93 N15G22    30.10R FOG
CHEROKEE *     LGT RAIN  50  45  81 N10       30.13S
DENISON *      LGT RAIN  46  43  87 N14       30.10S
LE MARS *      MOSUNNY   54  41  62 N16       30.15S
ORANGE CITY *  SUNNY     52  43  71 N10G16    30.15R
SHELDON *      CLOUDY    54  43  66 N15G22    30.13S
SIOUX CITY     CLOUDY    53  42  66 N15       30.15S
SPENCER        CLOUDY    53  39  59 N17       30.12S
STORM LAKE *   LGT RAIN  46  43  87 NE12      30.12S
$$

IAZ055>058-069>071-079>083-090>094-012100-
   SOUTHWEST IOWA

CITY           SKY/WX    TMP DP  RH WIND       PRES   REMARKS
ATLANTIC *     CLOUDY    46  45  93 N15       30.09R
AUDUBON *      DRIZZLE   46  45  93 N14       30.10R
CLARINDA *       N/A    N/A N/A N/A MISG        N/A
COUNCIL BLFS * CLOUDY    46  45  93 N18G24    30.11S
CRESTON *      CLOUDY    48  45  87 N14       30.06R
HARLAN  *      CLOUDY    46  45  93 N20       30.13S
LAMONI         CLOUDY    49  46  90 N13       30.03R
RED OAK *      CLOUDY    50  45  81 N16       30.09R
SHENANDOAH *   CLOUDY    50  48  93 N13G20    30.09S
$$

IAZ047>049-059>061-072>074-084-012100-
   CENTRAL IOWA

CITY           SKY/WX    TMP DP  RH WIND       PRES   REMARKS
AMES           LGT RAIN  47  45  93 NE8       30.07R
ANKENY *       CLOUDY    46  46 100 N8        30.05S
BOONE *        CLOUDY    46  46 100 N13       30.06S FOG
CHARITON *     LGT RAIN  46  46 100 N12       30.02R
DES MOINES     LGT RAIN  48  44  86 N9        30.06R
GRINNELL*      RAIN      46  45  93 N8        30.04R
KNOXVILLE *    LGT RAIN  46  45  93 N12       30.01S
MARSHALLTOWN   LGT RAIN  47  45  93 N10       30.04R FOG
NEWTON *       CLOUDY    46  46 100 N8        30.04R FOG
PELLA *        RAIN      48  46  93 N8        30.04S
$$

IAZ004>006-015-016-023>025-035-036-012100-
   NORTH CENTRAL IOWA

CITY           SKY/WX    TMP DP  RH WIND       PRES   REMARKS
ALGONA *       CLOUDY    52  43  71 NE13G18   30.10R
CLARION *      LGT RAIN  48  45  87 N15       30.08S
ESTHERVILLE    PTSUNNY   55  42  61 NE16      30.10F
FORT DODGE *   CLOUDY    46  41  81 N6        30.10R
MASON CITY     CLOUDY    52  44  74 N14       30.08S
FOREST CITY *  CLOUDY    52  41  66 N15       30.08S
WEBSTER CITY * LGT RAIN  46  45  93 N10       30.07R
IOWA FALLS *   LGT RAIN  46  45  93 NE8       30.08R
$$

IAZ007>011-017>019-026>030-037>042-050>054-066-012100-
   NORTHEAST IOWA

CITY           SKY/WX    TMP DP  RH WIND       PRES   REMARKS
CEDAR RAPIDS   LGT RAIN  48  48 100 NE10      30.00S FOG
CHARLES CITY * CLOUDY    50  45  81 N13       30.05F
CLINTON *      CLOUDY    50  46  86 E13       30.01R
DECORAH *      CLOUDY    50  41  71 E8        30.04S
DUBUQUE        CLOUDY    49  44  83 E12       30.02R
MONTICELLO *   CLOUDY    50  45  81 NE8       30.01S
OELWEIN *      CLOUDY    48  45  87 NE8G14    30.04R
WATERLOO       LGT RAIN  47  44  90 NE7       30.05R
$$

IAZ064-065-067-068-078-012100-
   EAST CENTRAL IOWA

CITY           SKY/WX    TMP DP  RH WIND       PRES   REMARKS
DAVENPORT      CLOUDY    50  46  86 NE10      30.00S
IOWA CITY      LGT RAIN  49  46  90 E6        30.02S
MT. PLEASANT * RAIN      52  52 100 NE7       29.99R
MUSCATINE *    LGT RAIN  50  48  93 NE6       30.01S
QUAD CITIES    CLOUDY    52  46  80 E9        29.99S
$$

IAZ062-063-075>077-085>089-095>099-012100-
   SOUTHEAST IOWA

CITY           SKY/WX    TMP DP  RH WIND       PRES   REMARKS
BURLINGTON     CLOUDY    50  50 100 NE7       29.97S FOG
FAIRFIELD *    DRZL/FOG  48  46  93 N10       30.00R VSB 3/4
FORT MADISON * CLOUDY    52  50  93 NE6       29.97F FOG
KEOKUK *       CLOUDY    54  50  87 VRB3      29.96F
OSKALOOSA *    RAIN      46  45  93 NE9       30.02S
OTTUMWA        CLOUDY    48  46  93 N10       30.01R
WASHINGTON *   PTSUNNY   48  48 100 NE9       30.01S FOG
$$

ABBREVIATIONS USED IN REMARKS
   TC - TEMPERATURES IN CELSIUS
  WCI - WIND CHILL INDEX
   HX - HEAT INDEX
  VSB - VISIBILITY
$$




USA.gov is the U.S. government's official web portal to all federal, state and local government web resources and services.